When you browse on this site, cookies collect data to enhance your experience and personalize the content and advertising you see.
Visit our Privacy Policy to learn more. By continuing to use the site, you agree to this use of cookies and data.
  • In United Kingdom
  • List of Countries
  • For 7 days
  • Water Temperature
  • Satellite Maps
  • Weather Map
  • Weather Widgets
  • user-avatar
    Login

    Hourly Weather Aleksandria

    Today, 20 May, Monday

    Time Temperature Precipitation Wind Pressure Humidity
    00:00 +21°C° 0 mm 3 mps 760 mmHg 61%
    01:00 +21°C° 0 mm 3 mps 760 mmHg 60%
    02:00 +20°C° 0 mm 2 mps 760 mmHg 60%
    03:00 +20°C° 0 mm 2 mps 760 mmHg 59%
    04:00 +20°C° 0 mm 2 mps 760 mmHg 58%
    05:00 +20°C° 0 mm 2 mps 760 mmHg 58%
    06:00 +21°C° 0 mm 2 mps 760 mmHg 51%
    07:00 +24°C° 0 mm 3 mps 760 mmHg 44%
    08:00 +26°C° 0 mm 3 mps 760 mmHg 37%
    09:00 +28°C° 0 mm 2 mps 760 mmHg 32%
    10:00 +31°C° 0 mm 2 mps 760 mmHg 26%
    11:00 +33°C° 0 mm 1 mps 761 mmHg 21%
    12:00 +35°C° 0 mm 3 mps 760 mmHg 22%
    13:00 +35°C° 0 mm 4 mps 760 mmHg 23%
    14:00 +35°C° 0 mm 5 mps 760 mmHg 25%
    15:00 +34°C° 0 mm 6 mps 760 mmHg 27%
    16:00 +33°C° 0 mm 6 mps 760 mmHg 29%
    17:00 +32°C° 0 mm 6 mps 760 mmHg 31%
    18:00 +30°C° 0 mm 6 mps 760 mmHg 36%
    19:00 +28°C° 0 mm 6 mps 760 mmHg 41%
    20:00 +26°C° 0 mm 5 mps 760 mmHg 46%
    21:00 +26°C° 0 mm 5 mps 761 mmHg 47%
    22:00 +25°C° 0 mm 4 mps 761 mmHg 48%
    23:00 +25°C° 0 mm 4 mps 761 mmHg 49%

    Tomorrow, 21 May, Tuesday

    Time Temperature Precipitation Wind Pressure Humidity
    00:00 +25°C° 0 mm 4 mps 761 mmHg 50%
    01:00 +24°C° 0 mm 3 mps 761 mmHg 50%
    02:00 +24°C° 0 mm 3 mps 760 mmHg 50%
    03:00 +24°C° 0 mm 3 mps 760 mmHg 50%
    04:00 +22°C° 0 mm 3 mps 760 mmHg 51%
    05:00 +22°C° 0 mm 3 mps 760 mmHg 52%
    06:00 +25°C° 0 mm 3 mps 760 mmHg 47%
    07:00 +27°C° 0 mm 3 mps 761 mmHg 41%
    08:00 +28°C° 0 mm 3 mps 761 mmHg 36%
    09:00 +31°C° 0 mm 3 mps 761 mmHg 31%
    10:00 +34°C° 0 mm 3 mps 761 mmHg 26%
    11:00 +37°C° 0 mm 3 mps 761 mmHg 21%
    12:00 +37°C° 0 mm 4 mps 761 mmHg 21%
    13:00 +39°C° 0 mm 5 mps 760 mmHg 21%
    14:00 +40°C° 0 mm 6 mps 760 mmHg 20%
    15:00 +38°C° 0 mm 7 mps 760 mmHg 23%
    16:00 +36°C° 0 mm 7 mps 759 mmHg 25%
    17:00 +35°C° 0 mm 8 mps 759 mmHg 27%
    18:00 +33°C° 0 mm 7 mps 760 mmHg 31%
    19:00 +30°C° 0 mm 7 mps 760 mmHg 35%
    20:00 +28°C° 0 mm 7 mps 760 mmHg 40%
    21:00 +28°C° 0 mm 6 mps 761 mmHg 42%
    22:00 +27°C° 0 mm 5 mps 761 mmHg 44%
    23:00 +26°C° 0 mm 5 mps 761 mmHg 46%

    Day after tomorrow, 22 May, Wednesday

    Time Temperature Precipitation Wind Pressure Humidity
    00:00 +26°C° 0 mm 4 mps 761 mmHg 46%
    01:00 +26°C° 0 mm 4 mps 761 mmHg 45%
    02:00 +25°C° 0 mm 4 mps 760 mmHg 45%
    03:00 +25°C° 0 mm 4 mps 760 mmHg 43%
    04:00 +25°C° 0 mm 4 mps 760 mmHg 42%
    05:00 +25°C° 0 mm 4 mps 760 mmHg 41%
    06:00 +27°C° 0 mm 4 mps 760 mmHg 36%
    07:00 +29°C° 0 mm 4 mps 760 mmHg 31%
    08:00 +32°C° 0 mm 4 mps 760 mmHg 26%
    09:00 +35°C° 0 mm 4 mps 760 mmHg 22%
    10:00 +38°C° 0 mm 4 mps 760 mmHg 18%
    11:00 +42°C° 0 mm 4 mps 760 mmHg 14%
    12:00 +41°C° 0 mm 6 mps 760 mmHg 18%
    13:00 +40°C° 0 mm 7 mps 760 mmHg 21%
    14:00 +39°C° 0 mm 8 mps 759 mmHg 24%
    15:00 +38°C° 0 mm 8 mps 759 mmHg 26%
    16:00 +37°C° 0 mm 8 mps 759 mmHg 28%
    17:00 +35°C° 0 mm 8 mps 758 mmHg 29%
    18:00 +34°C° 0 mm 7 mps 759 mmHg 30%
    19:00 +33°C° 0 mm 7 mps 759 mmHg 30%
    20:00 +32°C° 0 mm 6 mps 759 mmHg 31%
    21:00 +30°C° 0 mm 6 mps 759 mmHg 32%
    22:00 +29°C° 0 mm 6 mps 759 mmHg 33%
    23:00 +28°C° 0 mm 5 mps 759 mmHg 34%

    23 May, Thursday

    Time Temperature Precipitation Wind Pressure Humidity
    00:00 +28°C° 0 mm 5 mps 759 mmHg 35%
    01:00 +28°C° 0 mm 5 mps 759 mmHg 35%
    02:00 +27°C° 0 mm 4 mps 758 mmHg 35%
    03:00 +27°C° 0 mm 4 mps 758 mmHg 36%
    04:00 +27°C° 0 mm 5 mps 758 mmHg 36%
    05:00 +27°C° 0 mm 5 mps 758 mmHg 36%
    06:00 +29°C° 0 mm 5 mps 758 mmHg 31%
    07:00 +32°C° 0 mm 5 mps 758 mmHg 26%
    08:00 +35°C° 0 mm 6 mps 758 mmHg 21%
    09:00 +39°C° 0 mm 6 mps 758 mmHg 17%
    10:00 +42°C° 0 mm 6 mps 757 mmHg 14%
    11:00 +45°C° 0 mm 6 mps 757 mmHg 10%
    12:00 +46°C° 0 mm 5 mps 756 mmHg 10%
    13:00 +45°C° 0 mm 4 mps 756 mmHg 11%
    14:00 +47°C° 0 mm 4 mps 755 mmHg 11%
    15:00 +45°C° 0 mm 4 mps 755 mmHg 12%
    16:00 +44°C° 0 mm 4 mps 754 mmHg 14%
    17:00 +42°C° 0 mm 5 mps 754 mmHg 16%
    18:00 +41°C° 0 mm 5 mps 754 mmHg 17%
    19:00 +39°C° 0 mm 5 mps 754 mmHg 18%
    20:00 +37°C° 0 mm 5 mps 755 mmHg 20%
    21:00 +36°C° 0 mm 5 mps 755 mmHg 19%
    22:00 +35°C° 0 mm 5 mps 755 mmHg 19%
    23:00 +34°C° 0 mm 5 mps 755 mmHg 19%

    24 May, Friday

    Time Temperature Precipitation Wind Pressure Humidity
    00:00 +34°C° 0 mm 5 mps 755 mmHg 20%
    01:00 +33°C° 0 mm 5 mps 754 mmHg 22%
    02:00 +32°C° 0 mm 4 mps 754 mmHg 23%
    03:00 +32°C° 0 mm 4 mps 754 mmHg 22%
    04:00 +32°C° 0 mm 4 mps 754 mmHg 21%
    05:00 +32°C° 0 mm 4 mps 753 mmHg 20%
    06:00 +35°C° 0 mm 4 mps 754 mmHg 17%
    07:00 +39°C° 0 mm 5 mps 754 mmHg 14%
    08:00 +41°C° 0 mm 5 mps 754 mmHg 10%
    09:00 +43°C° 0 mm 5 mps 754 mmHg 10%
    10:00 +46°C° 0 mm 6 mps 754 mmHg 9%
    11:00 +48°C° 0 mm 6 mps 754 mmHg 8%
    12:00 +46°C° 0 mm 7 mps 753 mmHg 13%
    13:00 +43°C° 0 mm 8 mps 753 mmHg 18%
    14:00 +40°C° 0 mm 9 mps 753 mmHg 23%
    15:00 +37°C° 0 mm 9 mps 753 mmHg 33%
    16:00 +34°C° 0 mm 8 mps 753 mmHg 43%
    17:00 +31°C° 0 mm 8 mps 754 mmHg 52%
    18:00 +29°C° 0 mm 6 mps 754 mmHg 58%
    19:00 +27°C° 0 mm 5 mps 755 mmHg 64%
    20:00 +26°C° 0 mm 4 mps 756 mmHg 70%
    21:00 +26°C° 0 mm 4 mps 756 mmHg 71%
    22:00 +26°C° 0 mm 4 mps 756 mmHg 73%
    23:00 +25°C° 0 mm 4 mps 757 mmHg 74%

    25 May, Saturday

    Time Temperature Precipitation Wind Pressure Humidity
    00:00 +25°C° 0 mm 5 mps 757 mmHg 74%
    01:00 +24°C° 0 mm 6 mps 757 mmHg 74%
    02:00 +24°C° 0 mm 6 mps 757 mmHg 73%
    03:00 +23°C° 0 mm 6 mps 757 mmHg 75%
    04:00 +23°C° 0 mm 6 mps 757 mmHg 76%
    05:00 +23°C° 0 mm 6 mps 757 mmHg 77%
    06:00 +24°C° 0 mm 6 mps 758 mmHg 71%
    07:00 +24°C° 0 mm 6 mps 758 mmHg 66%
    08:00 +26°C° 0 mm 7 mps 758 mmHg 60%
    09:00 +27°C° 0 mm 6 mps 758 mmHg 56%
    10:00 +28°C° 0 mm 6 mps 758 mmHg 53%
    11:00 +29°C° 0 mm 6 mps 758 mmHg 49%
    12:00 +29°C° 0 mm 6 mps 758 mmHg 48%
    13:00 +29°C° 0 mm 6 mps 758 mmHg 48%
    14:00 +29°C° 0 mm 6 mps 758 mmHg 47%
    15:00 +28°C° 0 mm 6 mps 758 mmHg 50%
    16:00 +27°C° 0 mm 6 mps 758 mmHg 53%
    17:00 +26°C° 0 mm 6 mps 758 mmHg 56%
    18:00 +26°C° 0 mm 6 mps 759 mmHg 61%
    19:00 +25°C° 0 mm 5 mps 759 mmHg 65%
    20:00 +23°C° 0 mm 5 mps 759 mmHg 69%
    21:00 +23°C° 0 mm 5 mps 759 mmHg 70%
    22:00 +22°C° 0 mm 5 mps 760 mmHg 72%
    23:00 +22°C° 0 mm 4 mps 760 mmHg 73%
    Show more